Showing default

ION SCV-016, 62628

Orbit data source: Space-Track

ION SCV-016, 62628 is a payload satellite owned by D-ORBIT (IT) in SSO that was launched on Tue, 14 Jan 2025 UTC via an FALCON 9 launch vehicle from the Air Force Western Test Range (AFWTR). Payload-class satellites include a variety of spacecraft equipped with specific instruments for various scientific and technological missions. These include communications satellites like Starlink; space stations such as the ISS; scientific satellites like the Hubble; Earth observation satellites from companies like Planet Labs, Umbra, and HawkEye 360; GPS; miniature CubeSats for education and research; and military/defense satellites.

Loading next visibility...
Identifier
62628, 2025-009V
Orbit
SSO
Country
Flag of ITIT
Related business
Manufacturer
D-ORBIT
Mission
Operational Commercial Technology
Bus & Motor
ION-SC, PM200
Mass
220 kg wet, 150 kg dry
Launch date (UTC)
2025-01-14 (1 year ago)
Launch vehicle
FALCON 9
Launch site
Air Force Western Test Range (AFWTR)
Object type
Payload
Rocket body
Debris
Shape & HBR
Box, 1.4 m
Radar Cross Section
0.240 m², Medium (>0.1 m² and < 1m²)

Expand to show TLE details & history
Last TLE update: 11 hours ago

TLE from 11 hours ago
0 ION SCV-016
1 62628U 25009V   26126.14336050  .00014738  00000-0  32188-3 0  9997
2 62628  97.4322 168.9041 0594270 238.5154 115.6671 14.49189350 69452
Epoch: 2026-05-06T03:26Z
TLE epoch observation values (Epoch: 2026-05-06T03:26:26.347Z)
Latitude
-0.00001°
Longitude
-106.71376°
Altitude
933.849 km
Speed
7.279 km/s
True Right ascension
11h 15m 36s
True Declination
0° 00' 00"
Sunlit
Object was in full shadow at epoch
Visualization orbit readout
Latitude
Unknown
Longitude
Unknown
Altitude
Unknown
Speed
Unknown
Apparent Right ascension
Unknown
Apparent Declination
Unknown
Sunlit
N/A
Visualization observer readout
Local Sidereal Time
22:16:53
Azimuth
Unknown
Elevation
Unknown
Doppler factor
Unknown
Orbital elements
Apogee altitude
1,147.482 km
Perigee altitude
303.205 km
Semi-major axis
7,103.481 km
Eccentricity
0.05943
Inclination
97.4322°
RAAN
168.9041°
Arg. of periapsis
238.5154°
True anomaly
121.60283°
Mean anomaly
115.6671°
Eccentric anomaly
118.65499°
Mean motion
3.62524 °/min
Orbital period
99.3 mins
BSTAR
0.00032188
Loading maneuver chart data...
Computing Atmospheric mass density...
Loading historical data...
Loading historical data...
Loading historical data...
Loading historical data...
Loading historical data...
Loading historical data...
Loading historical data...

Documentation

Showing up to 5 results
|